, AK

(GMT )
Deadhorse

Weather History for PASC - June, 2013

Change the Weather History Date:

Monday, June 3, 2013

  Actual Average Record
Temperature  
Mean Temperature 32 °F -  
Max Temperature 41 °F 35 °F 55 °F (1998)
Min Temperature 26 °F 26 °F 19 °F (1997)
Degree Days  
Heating Degree Days 32    
Moisture  
Dew Point 28 °F    
Average Humidity 88    
Maximum Humidity 96    
Minimum Humidity 75    
Precipitation  
Precipitation 0.01 in - - ()
Sea Level Pressure  
Sea Level Pressure 29.92 in    
Wind  
Wind Speed 14 mph (NNE)    
Max Wind Speed 23 mph    
Max Gust Speed 28 mph    
Visibility 8 miles    
Events Rain , Snow    
Averages and records for this station are not official NWS values.
T = Trace of Precipitation, MM = Missing Value Source: NWS Daily Summary

Daily Weather History Graph

Daily Weather History Graph

Search for Another Location

Airport or City:

Trip Planner

Search our weather history database for the weather conditions in past years. The results will help you decide how hot, cold, wet, or windy it might be!

Date:

Astronomy

Dec. 31, 1969 Rise Set
Actual Time Sun does not set Sun does not set
Civil Twilight Sun does not set Sun does not set
Nautical Twilight Sun does not set Sun does not set
Astronomical Twilight Sun does not set Sun does not set
Moon 2:19 AM AKDT (6/3) 6:34 PM AKDT (6/3)
Length of Visible Light 24h 00m
Length of Day
24h 00m
Waning Crescent, 20% of the Moon is Illuminated
Jun 3
Waning Crescent
Jun 8
New
Jun 16
First Quarter
Jun 23
Full
Jun 29
Last Quarter

Hourly Weather History & Observations

Time (AKDT) Temp. Windchill Dew Point Humidity Pressure Visibility Wind Dir Wind Speed Gust Speed Precip Events Conditions
12:53 AM 39.0 °F 31.8 °F 34.0 °F 82% 29.84 in 10.0 mi South 11.5 mph - N/A   Partly Cloudy
1:53 AM 37.0 °F 30.4 °F 33.1 °F 86% 29.84 in 10.0 mi SSW 9.2 mph - N/A   Partly Cloudy
2:53 AM 37.9 °F 31.5 °F 32.0 °F 79% 29.83 in 10.0 mi SW 9.2 mph - N/A   Partly Cloudy
3:53 AM 37.0 °F 30.4 °F 33.1 °F 86% 29.84 in 10.0 mi West 9.2 mph - N/A   Partly Cloudy
4:53 AM 37.0 °F 30.4 °F 33.1 °F 86% 29.85 in 10.0 mi NW 9.2 mph - N/A   Partly Cloudy
5:53 AM 35.1 °F 26.9 °F 32.0 °F 89% 29.86 in 10.0 mi NW 11.5 mph - N/A   Scattered Clouds
6:53 AM 34.0 °F 25.5 °F 32.0 °F 92% 29.88 in 10.0 mi NNW 11.5 mph - N/A   Mostly Cloudy
7:00 AM 33.8 °F 24.3 °F 32.0 °F 93% 29.88 in 10.0 mi North 13.8 mph - N/A   Mostly Cloudy
7:14 AM 33.8 °F 23.9 °F 32.0 °F 93% 29.88 in 10.0 mi NNW 15.0 mph - N/A   Mostly Cloudy
7:30 AM 33.8 °F 24.3 °F 32.0 °F 93% 29.88 in 1.0 mi North 13.8 mph - N/A   Overcast
7:53 AM 33.1 °F 23.9 °F 32.0 °F 96% 29.90 in 1.0 mi North 12.7 mph - N/A   Overcast
8:04 AM 33.8 °F 24.8 °F 32.0 °F 93% 29.89 in 1.0 mi North 12.7 mph - N/A   Overcast
8:53 AM 32.0 °F 21.6 °F 30.9 °F 96% 29.90 in 1.8 mi North 15.0 mph - N/A   Overcast
9:17 AM 33.8 °F 24.8 °F 32.0 °F 93% 29.90 in 6.0 mi NNE 12.7 mph - N/A   Overcast
9:53 AM 33.1 °F 23.9 °F 30.9 °F 92% 29.91 in 10.0 mi NE 12.7 mph - N/A   Overcast
10:53 AM 33.1 °F 23.4 °F 32.0 °F 96% 29.92 in 10.0 mi NE 13.8 mph - N/A   Overcast
11:08 AM 33.8 °F 24.3 °F 32.0 °F 93% 29.92 in 2.5 mi NE 13.8 mph - N/A   Overcast
11:30 AM 32.0 °F 21.2 °F 30.2 °F 93% 29.92 in 6.0 mi NE 16.1 mph - N/A   Overcast
11:53 AM 32.0 °F 21.2 °F 30.0 °F 92% 29.94 in 10.0 mi NE 16.1 mph - N/A   Overcast
12:53 PM 30.9 °F 19.4 °F 28.9 °F 92% 29.94 in 10.0 mi NNE 17.3 mph - 0.00 in   Overcast
1:35 PM 30.2 °F 18.1 °F 28.4 °F 93% 29.93 in 8.0 mi NE 18.4 mph - 0.00 in Rain Light Freezing Rain
1:53 PM 30.0 °F 18.3 °F 28.9 °F 96% 29.94 in 10.0 mi NE 17.3 mph - 0.00 in Rain Light Freezing Rain
2:02 PM 30.2 °F 18.5 °F 28.4 °F 93% 29.94 in 10.0 mi NE 17.3 mph - 0.00 in   Overcast
2:37 PM 30.2 °F 18.1 °F 28.4 °F 93% 29.94 in 9.0 mi NE 18.4 mph - 0.00 in Rain Light Freezing Rain
2:53 PM 30.0 °F 17.9 °F 28.0 °F 92% 29.95 in 8.0 mi NE 18.4 mph - 0.01 in Rain Light Freezing Rain
3:20 PM 30.2 °F 18.5 °F 26.6 °F 86% 29.94 in 2.0 mi NE 17.3 mph - 0.00 in Snow Light Snow
3:53 PM 30.0 °F 17.5 °F 27.0 °F 88% 29.94 in 5.0 mi NE 19.6 mph - 0.00 in   Overcast
4:53 PM 28.9 °F 16.5 °F 26.1 °F 89% 29.94 in 5.0 mi NE 18.4 mph - N/A   Overcast
5:07 PM 28.4 °F 14.4 °F 24.8 °F 86% 29.94 in 8.0 mi NE 23.0 mph - N/A   Overcast
5:32 PM 28.4 °F 15.4 °F 24.8 °F 86% 29.94 in 9.0 mi NE 19.6 mph - N/A   Overcast
5:53 PM 28.0 °F 14.6 °F 24.1 °F 85% 29.95 in 4.0 mi NE 20.7 mph - 0.00 in Snow Light Snow
6:08 PM 28.4 °F 15.1 °F 24.8 °F 86% 29.94 in 3.0 mi NE 20.7 mph - 0.00 in Snow Light Snow
6:53 PM 28.0 °F 13.9 °F 21.9 °F 78% 29.95 in 10.0 mi NE 23.0 mph 27.6 mph 0.00 in   Overcast
7:53 PM 28.0 °F 15.7 °F 21.0 °F 75% 29.96 in 10.0 mi NE 17.3 mph - N/A   Overcast
8:53 PM 27.0 °F 13.9 °F 21.0 °F 78% 29.97 in 10.0 mi NE 18.4 mph 26.5 mph N/A   Overcast
9:53 PM 27.0 °F 13.9 °F 21.0 °F 78% 29.97 in 10.0 mi NE 18.4 mph - N/A   Overcast
10:53 PM 27.0 °F 14.3 °F 21.9 °F 81% 29.98 in 6.0 mi NE 17.3 mph - 0.00 in Snow Light Snow
11:14 PM 26.6 °F 13.1 °F 21.2 °F 80% 29.97 in 9.0 mi NE 19.6 mph - 0.00 in Snow Light Snow
11:53 PM 26.1 °F 12.3 °F 21.0 °F 81% 29.97 in 10.0 mi NE 19.6 mph - 0.00 in   Overcast